Probability
0 0 0 0 0 0 0 0 0 0 0 0 0 1 4 9 13 14 14 14 14 14 16 16 16 20 25 28 25 19 15 13 11 10 9 6 4 3 2 3 2 1 1 2
0 0 0 0 0 0 0 0 0 0 0 0 0 1 3 7 11 13 15 15 13 14 17 17 17 20 25 27 24 19 16 15 12 10 9 6 5 4 3 3 3 2 2 3
0 0 0 0 0 0 0 0 0 0 0 0 0 0 1 4 8 10 13 14 15 15 18 20 20 23 26 26 23 20 18 17 14 11 10 9 7 6 5 5 4 5 5 5
0 0 0 0 0 0 0 0 0 0 0 0 0 0 1 3 5 8 10 13 16 17 19 22 24 26 28 28 25 22 19 18 15 12 11 11 11 9 8 7 8 8 7 7
0 0 0 0 0 0 0 0 0 0 0 0 0 0 0 1 4 5 8 12 16 17 19 22 24 27 29 29 28 24 21 19 16 14 12 11 11 11 10 9 9 8 7 6
0 0 0 0 0 0 0 1 0 0 0 0 0 0 0 1 2 4 6 10 14 15 17 20 22 26 29 30 29 26 23 21 19 16 13 10 9 9 10 9 9 8 7 6
0 0 0 0 0 0 0 0 0 0 0 0 0 0 0 1 3 4 6 9 11 12 14 17 22 26 29 30 29 27 26 24 23 19 15 12 10 9 10 10 10 10 9 8
0 0 0 0 0 0 0 0 0 0 0 0 0 0 0 2 4 5 6 8 10 12 15 19 22 26 28 29 29 27 25 24 23 19 16 13 12 11 11 13 13 13 11 10
0 0 0 0 0 0 0 0 0 0 0 0 0 0 0 2 3 4 5 7 10 13 16 20 22 23 25 27 27 25 23 23 22 19 17 15 13 13 14 14 15 14 13 13
0 0 0 0 0 0 0 0 0 0 0 0 0 1 1 2 4 6 6 7 9 14 18 20 21 22 23 24 23 22 23 23 22 21 19 17 14 14 14 14 14 15 15 15
0 0 0 0 0 0 0 0 0 0 0 0 1 3 4 5 7 8 9 9 10 14 18 21 22 22 22 22 21 21 23 24 22 20 19 16 13 13 13 13 14 14 15 16
0 0 0 0 0 0 0 0 0 0 0 0 1 4 7 8 9 10 10 11 12 15 18 21 22 21 20 20 21 22 24 24 21 18 16 14 11 11 11 11 11 11 11 12
0 0 0 0 0 0 0 0 0 0 0 0 1 4 6 8 9 10 11 13 15 17 20 23 22 21 19 19 21 24 25 22 18 15 14 13 11 10 9 8 7 6 6 6
0 0 0 0 0 0 0 0 0 0 0 0 1 4 6 6 7 8 10 15 18 21 25 27 25 23 21 21 24 27 23 18 15 14 13 12 12 11 9 7 6 4 3 4
0 0 0 0 0 1 1 1 1 0 0 1 3 5 6 5 5 5 8 14 20 24 26 27 26 25 25 25 27 27 23 18 15 13 12 11 12 12 12 10 7 5 5 5
0 0 0 0 0 1 2 2 2 1 1 2 5 6 6 4 3 3 7 13 19 22 24 25 26 27 27 26 26 27 23 18 14 11 10 9 11 14 14 13 9 7 8 8
0 0 0 0 0 1 1 1 1 1 2 4 6 6 5 3 2 3 7 13 17 18 19 22 26 27 24 21 21 23 21 17 13 9 8 8 10 13 14 13 10 10 11 11
0 0 0 0 0 0 1 1 0 1 3 5 6 6 5 5 5 7 9 12 14 14 14 17 22 22 18 16 15 17 17 16 13 10 9 9 10 12 13 11 10 10 12 13
0 0 0 0 0 0 0 0 0 1 3 5 7 8 9 9 10 10 10 10 11 11 11 13 16 16 14 13 13 14 15 14 13 12 12 12 13 13 12 9 7 8 10 12
0 0 0 0 0 0 0 0 0 1 3 4 7 11 13 13 12 11 8 7 8 9 8 8 11 12 12 12 12 12 13 13 12 12 13 13 14 14 12 10 7 7 8 9
0 0 0 0 0 0 0 0 0 1 2 4 7 12 14 13 11 9 7 6 6 6 5 5 7 9 9 8 9 10 10 10 12 12 13 13 14 14 12 10 8 7 7 7
0 0 0 0 0 1 0 0 0 1 3 5 7 9 11 11 9 7 6 5 4 5 5 4 4 5 5 5 6 7 7 8 11 12 12 12 13 13 12 10 8 7 6 5
1 0 1 1 1 1 1 1 2 3 5 5 5 6 7 8 8 7 6 5 5 5 5 4 4 5 5 4 4 5 5 7 9 11 11 11 12 13 11 9 7 5 4 4
1 1 2 2 2 2 2 3 5 6 6 5 4 4 5 6 8 7 5 5 5 5 5 4 4 6 6 5 4 4 5 6 7 9 9 10 11 11 10 7 5 4 3 3
1 0 1 1 2 3 3 5 6 6 6 5 4 3 3 5 7 7 5 4 4 4 4 4 5 5 5 4 4 4 5 6 6 7 8 9 9 9 8 5 3 3 3 3
0 0 0 0 1 2 4 6 6 6 6 5 4 3 2 4 7 6 4 3 3 4 4 4 4 4 4 2 2 4 4 5 6 7 7 8 9 8 6 4 3 3 3 3
Wind_Speed
1 2 4 8 8 7 5 4 6 7 5 1 2 4 4 6 7 7 7 8 7 7 6 6 6 7 8 7 7 6 5 4 4 3 3 2 2 1 1 2 3 3 3 4
2 5 10 7 5 5 6 6 7 6 3 2 2 3 3 4 8 9 8 7 8 7 6 7 7 6 7 8 8 7 7 6 5 3 3 2 2 2 2 1 2 2 3 3
8 9 6 7 7 6 7 7 7 5 2 2 2 3 3 1 2 5 6 7 9 10 10 8 7 7 7 7 8 7 6 6 5 4 3 2 2 1 1 0 1 2 2 3
6 9 6 6 7 7 7 8 7 5 2 2 2 2 5 2 2 4 5 5 7 9 8 8 7 7 8 7 6 6 6 6 5 5 4 4 3 2 2 2 1 1 2 2
6 5 5 7 9 6 7 5 3 3 3 0 1 2 6 1 2 4 5 6 7 8 9 9 9 9 8 7 6 5 6 6 5 5 5 4 3 2 1 1 1 1 1 1
8 5 5 8 7 4 3 3 5 4 4 1 4 3 5 4 6 5 6 6 7 8 8 8 7 7 6 6 6 5 5 5 5 5 4 5 4 3 3 2 2 1 0 0
6 7 5 4 2 3 3 5 4 5 3 4 3 2 6 5 4 6 7 7 7 7 7 7 6 7 7 7 6 5 5 5 5 5 5 5 4 4 4 3 3 2 1 1
3 6 5 4 6 5 4 9 8 5 5 4 1 2 5 3 2 4 5 5 6 7 7 8 8 8 8 7 7 6 5 4 5 5 4 3 4 3 2 3 3 3 2 2
5 6 5 5 5 7 3 3 7 7 2 1 2 2 4 2 0 2 4 4 5 8 8 8 7 7 7 8 7 7 6 5 4 4 4 3 2 2 2 2 2 2 2 2
5 3 5 4 1 1 6 6 5 5 4 3 2 3 4 4 3 3 4 5 5 6 7 7 7 7 7 8 7 7 6 5 3 3 3 3 2 2 2 2 2 2 1 1
3 2 5 2 2 3 1 2 4 4 5 5 3 5 5 7 6 6 6 6 6 6 7 7 6 6 6 6 6 6 5 4 4 3 2 2 2 1 2 2 2 2 1 1
3 5 3 5 4 4 4 5 6 5 3 4 4 6 3 4 5 6 6 5 5 6 6 7 7 6 6 5 5 5 4 4 4 3 3 3 2 2 2 1 0 1 2 1
3 5 1 6 6 4 1 1 3 5 4 4 5 5 1 2 3 4 5 5 5 6 6 6 6 6 6 5 5 4 4 4 4 4 4 3 2 2 1 1 1 1 1 1
5 4 6 7 6 3 3 3 1 4 4 5 6 6 2 2 3 2 3 5 7 7 7 7 6 6 5 5 4 5 4 4 5 4 4 3 2 2 1 1 1 1 1 1
5 3 3 4 3 2 2 3 1 2 5 6 7 6 7 6 6 5 5 5 6 6 6 6 6 5 5 5 4 4 4 4 5 5 4 3 2 1 1 1 1 1 1 1
3 3 1 1 1 1 2 3 2 2 2 5 6 3 4 5 5 5 6 7 6 5 5 5 6 6 6 6 5 5 5 5 5 5 3 2 2 2 2 1 1 1 1 1
1 3 2 2 3 3 3 3 2 1 2 6 6 6 5 5 6 6 6 7 7 6 5 5 5 5 5 5 5 5 5 5 5 4 3 3 2 2 2 1 1 1 0 1
4 3 3 1 2 3 6 2 3 4 1 2 5 6 7 7 6 4 5 7 6 6 5 5 5 4 3 3 4 4 5 5 5 4 3 3 3 2 1 1 1 0 0 1
6 6 3 3 2 4 4 2 1 3 1 1 5 6 5 6 5 2 1 4 5 5 5 5 5 5 5 4 5 6 5 4 4 4 3 3 3 3 2 1 1 0 0 0
4 5 5 3 3 5 5 4 1 4 1 1 5 6 6 5 3 3 2 4 5 5 4 4 4 4 5 4 5 6 5 4 3 3 3 3 3 3 2 2 1 1 1 1
3 3 3 3 3 4 4 4 2 3 6 2 4 5 5 4 5 5 5 5 5 5 5 5 5 4 3 4 5 5 4 3 3 3 3 3 2 2 2 1 1 0 1 1
4 3 3 3 3 6 4 2 2 4 1 3 3 3 5 5 5 6 6 6 6 5 5 5 5 3 2 3 5 5 3 3 2 3 2 2 2 2 1 1 1 1 0 1
2 5 4 5 5 4 1 2 2 3 3 2 3 3 5 5 5 4 5 5 5 5 4 3 4 4 2 3 4 4 3 3 3 3 2 1 1 0 1 1 1 1 0 0
2 1 3 1 1 1 1 2 2 3 3 3 4 4 5 5 5 4 4 3 3 4 4 3 4 4 2 2 3 3 3 3 3 3 1 1 1 0 1 1 1 1 1 1
2 1 2 1 1 2 3 2 2 3 3 4 4 4 4 5 4 5 5 5 4 3 3 4 5 4 3 2 2 2 2 3 3 2 2 1 1 1 1 1 2 2 3 4
1 2 3 4 4 3 2 0 2 3 2 3 4 3 2 3 4 4 4 4 4 4 4 4 4 4 3 3 2 1 2 3 4 2 2 1 1 1 1 1 2 3 3 4
Wind_Direction
254 107 224 225 210 205 210 242 263 265 259 170 194 213 221 184 163 165 168 170 169 171 165 158 159 160 153 149 147 152 146 157 155 155 146 142 154 154 149 166 172 168 165 157
4 254 235 229 231 225 226 240 254 274 265 162 187 243 241 180 175 172 169 177 173 163 154 161 157 152 159 159 161 161 159 162 169 169 160 154 153 159 169 163 163 172 168 163
207 241 237 230 249 239 234 215 221 229 309 23 103 319 293 263 164 166 172 179 176 168 165 167 164 160 156 164 170 167 163 160 162 151 126 112 90 75 83 153 195 204 178 168
237 247 243 238 244 219 245 232 207 195 157 266 144 244 279 240 203 181 172 176 180 175 166 168 166 166 167 169 167 159 157 155 155 147 144 144 149 166 190 191 193 207 194 175
246 238 231 236 239 219 226 232 188 194 184 208 336 154 271 254 224 206 183 183 179 176 167 168 171 173 170 161 155 153 149 148 148 151 157 155 162 174 158 159 167 200 223 186
252 253 217 226 245 223 202 39 26 47 74 316 251 176 258 227 213 204 187 183 180 172 166 166 163 157 154 154 151 145 150 153 149 148 152 164 163 160 149 166 182 196 217 247
289 279 254 227 270 307 103 89 28 358 6 253 244 167 242 246 213 186 182 181 173 164 158 151 144 145 146 148 147 151 156 157 157 158 166 173 166 166 174 184 185 181 192 214
230 273 252 220 198 202 191 143 158 191 220 261 310 219 261 269 208 168 172 160 150 151 154 153 159 155 149 147 147 153 159 160 164 167 177 174 168 169 181 181 180 186 195 205
202 252 272 247 214 168 172 180 169 143 169 194 266 271 300 306 115 145 146 130 154 160 155 153 153 154 150 153 158 158 158 157 164 162 167 167 170 170 173 179 185 185 185 179
177 252 279 273 43 178 164 160 106 123 158 228 255 235 227 226 208 152 140 142 166 158 148 148 152 158 158 159 159 157 154 154 152 151 160 163 174 172 167 163 175 179 178 156
160 187 302 346 190 210 117 105 121 134 156 162 209 255 222 194 183 164 161 159 159 148 150 150 152 151 151 149 151 154 150 144 141 138 130 121 135 148 145 152 171 163 145 153
177 141 243 258 253 206 187 179 153 156 209 168 172 253 252 174 159 144 150 152 146 145 143 141 136 131 132 141 148 153 156 157 157 149 129 116 103 89 87 98 129 127 123 123
148 119 75 331 333 353 3 211 163 145 139 160 170 243 286 99 104 122 135 141 138 135 135 137 134 135 137 136 141 149 155 158 149 135 126 117 117 116 115 117 96 86 96 89
128 131 168 203 225 244 293 290 204 131 160 188 195 193 208 174 143 135 136 150 150 144 142 144 143 145 142 143 145 142 143 147 144 137 140 139 149 161 171 150 114 98 92 98
100 147 195 218 235 235 263 276 258 169 187 183 191 181 199 189 169 157 141 132 131 136 138 148 152 151 145 142 143 138 135 135 141 138 143 151 160 158 129 113 138 130 116 124
73 137 130 308 310 339 302 297 273 212 165 150 140 184 205 170 148 136 130 126 131 142 144 152 159 158 157 154 151 139 142 141 131 129 136 134 132 130 127 120 114 101 75 66
77 119 111 258 300 10 296 259 209 158 137 152 178 197 163 148 151 157 152 140 140 140 148 162 160 162 158 156 151 149 152 143 136 138 140 136 135 128 142 143 99 119 125 88
142 122 134 170 46 228 246 240 137 119 101 142 156 163 165 164 159 154 154 147 146 145 149 157 152 146 141 145 138 132 133 135 137 140 144 146 140 133 128 109 102 71 109 132
154 144 132 134 182 256 288 288 178 128 313 110 138 147 144 129 99 59 150 144 146 148 150 153 149 145 134 132 134 125 125 129 129 142 157 160 146 135 131 135 186 215 154 316
88 111 126 144 170 222 251 275 249 110 246 248 142 150 156 132 137 217 186 132 121 120 124 126 128 126 134 143 132 124 132 139 154 170 170 164 155 153 166 186 208 225 205 234
58 58 130 164 196 249 269 303 25 166 221 201 143 144 148 164 182 173 147 131 127 126 125 121 121 124 144 145 129 125 130 158 181 166 159 161 158 162 171 178 210 228 261 281
161 154 181 160 181 245 293 24 157 207 173 120 125 134 136 137 131 128 130 133 130 124 124 127 130 130 136 134 137 137 156 185 159 139 145 158 165 181 166 164 258 282 312 315
160 180 176 177 203 238 265 153 174 137 117 107 103 109 121 126 131 130 129 134 137 134 133 137 141 141 152 146 142 158 184 167 138 130 147 164 161 191 176 187 230 287 331 277
322 76 106 102 272 274 55 82 87 95 108 115 113 113 118 133 142 138 135 136 134 140 146 147 141 146 173 169 152 173 181 155 136 139 155 170 158 248 275 237 220 212 226 232
268 58 103 136 268 27 26 53 80 71 77 89 94 95 111 125 140 150 152 156 161 158 154 155 160 168 176 166 167 174 165 150 143 152 172 194 205 214 245 259 244 228 229 215
245 170 172 208 215 174 223 245 102 97 103 119 108 91 88 127 147 151 160 164 160 159 156 152 158 161 169 170 178 188 167 160 161 168 182 190 202 228 239 257 296 289 252 252